OneWeb SL0511

operational
NORAD ID: 54129 Int'l Des: 2022-138 Owner: ONEWEBN Country: UK Constellation: oneweb
LEOCIRCULARPOLARONEWEB_TYPE

OneWeb SL0511について

説明を読み込み中...

リアルタイム位置

3D地球を読み込み中...

次回通過

高度履歴

Altitude vs Time

uPlot chart will show altitude changes over time

軌道要素

1 54129U 22138S 25261.20975544 .00000098 00000-0 21240-3 0 9998
2 54129 87.9291 359.0315 0001889 91.2660 268.8689 13.19726536140965
Epoch: Sep 18, 2025 • Age: 6 hours

現在のステータス

高度 1197.7 km
速度 7.26 km/s
衛星直下点 78.78°N, 5.87°E
打ち上げ日 Oct 22, 2022
運用期間 2.9 years
タイプ internet

技術仕様

分類 Payload
質量 148.00 kg
乾燥質量 140.00 kg
総質量 148.00 kg
長さ 1.30 m
直径 1.00 m
スパン 5.00 m
形状 Trapezoid+2 pan
製造者 ONEWUS
バスタイプ ARROW
フェーズステータス In Orbit
所有者/国 ONEWEBN/UK

大規模コンステレーション

Loading constellations...